Regional Weather Roundup
Issued by NWS State College, PA

Home | Current Version | Previous Version | Graphics & Text | Print | Product List | Glossary On
Versions: 1 2 3 4 5 6 7 8 9 10 11 12 13 14 15 16 17 18 19 20 21 22 23 24 25 26 27 28 29 30 31 32 33 34 35 36 37 38 39 40 41 42 43 44 45 46 47 48 49 50
000
ASUS41 KCTP 211803
RWRCTP

REGIONAL WEATHER ROUNDUP
NATIONAL WEATHER SERVICE STATE COLLEGE PA
100 PM EST FRI NOV 21 2014

Note: "fair" indicates few or no clouds below 12,000 feet with no
significant weather and/or obstructions to visibility.

* = STATION THAT DOES NOT REPORT PRECIPITATION /E.G. RAIN...SNOW...ETC/
    THUNDER OR FOG.

PAZ002>004-007>009-013>016-020>023-029>032-211900-
WESTERN PENNSYLVANIA

CITY           SKY/WX    TMP DP  RH WIND       PRES   REMARKS
ERIE           CLOUDY    26  11  52 W12       30.44R
MEADVILLE      CLOUDY    22  10  60 W9        30.40R WCI  12
FRANKLIN*      CLOUDY    21   9  58 W6        30.41R WCI  14
NEW CASTLE       N/A     23  11  60 W7        30.46S WCI  15
BEAVER COUNTY  CLOUDY    25   9  50 NW6       30.44R
BUTLER*        CLOUDY    27   9  46 SW9       30.44S
PITTSBURGH INT PTSUNNY   24   9  52 NW9       30.44S WCI  14
PITTSBURGH     CLOUDY    24   7  48 N7        30.43S
INDIANA*       CLOUDY    27  10  50 W8        30.45R
LATROBE        CLOUDY    25  10  54 W9        30.46S
WASHINGTON CO* CLOUDY    28   9  43 SW9       30.46S
$$

PAZ004>006-010>012-017>019-024>028-033>037-041-042-045-046-049>053-211900-
CENTRAL PENNSYLVANIA

CITY           SKY/WX    TMP DP  RH WIND       PRES   REMARKS
BRADFORD       PTSUNNY   23  11  60 W9        30.30R WCI  13
DUBOIS         CLOUDY    22  11  62 W13       30.35R WCI  10
CLEARFIELD     MIX PCPN  25   8  48 W9        30.37R
JOHNSTOWN      FLURRIES  19  10  68 NW14      30.33S WCI   6
ALTOONA        SUNNY     27  10  49 W15G23    30.38R
STATE COLLEGE  PTSUNNY   30   9  40 W16G22    30.37S
WILLIAMSPORT   MOSUNNY   34   9  35 W12G22    30.36S
SELINSGROVE    CLOUDY    33   8  35 NW8G18    30.39R
FT INDIANTOWN  MOSUNNY   33   7  33 W12G21    30.38R
CAPITAL CITY   MOSUNNY   34   9  35 NW13      30.41R
HARRISBURG     MOSUNNY   34  10  37 NW13      30.40R
YORK           MOSUNNY   34   7  32 W14       30.40R
$$

PAZ038>040-043-044-047-048-054-055-060>062-067>071-211900-
EASTERN PENNSYLVANIA

CITY           SKY/WX    TMP DP  RH WIND       PRES   REMARKS
SCRANTON       MOSUNNY   32   9  38 NW15G24   30.29F
MOUNT POCONO   MOSUNNY   25   7  46 NW15G24   30.22R WCI  13
ALLENTOWN      MOSUNNY   34   9  35 NW14G23   30.34R
QUAKERTOWN*    CLEAR     32   9  37 NW13G20   30.34R
READING        SUNNY     35   8  32 NW15G25   30.36S
LANCASTER      SUNNY     33   8  35 NW17G23   30.38R
COATESVILLE    CLEAR     32   9  37 NW17G26   30.36R
POTTSTOWN      SUNNY     33   9  36 W13G22    30.37R
BLUE BELL      SUNNY     36  12  38 NW9       30.35R
DOYLESTOWN     SUNNY     34  10  37 NW8G24    30.33R
WILLOW GROVE   NOT AVBL
NORTH PHILA    SUNNY     37   7  28 W20G25    30.37S
PHILADELPHIA   MOSUNNY   36   7  29 NW20G26   30.38R
$$


USA.gov is the U.S. government's official web portal to all federal, state and local government web resources and services.